EW0292 Weather Reports


Display with metric or nautical units.
time (UTC)temp
F
wind
direction
speed
MPH
gust
MPH
rain 1hr
in
rain 24hr
in
rain mn
in
humidity
%
barometer
mb
20260506175521 77 77 1.0 4.0 0.00 0.00 0.00 61 1011.1
20260506175021 76 77 0.0 2.0 0.00 0.00 0.00 61 1011.3
20260506174518 76 72 0.0 2.0 0.00 0.00 0.00 60 1011.5
20260506174017 76 101 0.0 3.0 0.00 0.00 0.00 60 1011.5
20260506173519 77 119 0.0 4.0 0.00 0.00 0.00 60 1011.4
20260506173021 77 104 0.0 4.0 0.00 0.00 0.00 60 1011.4
20260506172515 77 60 0.0 3.0 0.00 0.00 0.00 60 1011.4
20260506172015 77 91 0.0 3.0 0.00 0.00 0.00 59 1011.3
20260506171515 77 79 0.0 4.0 0.00 0.00 0.00 59 1011.3
20260506171014 77 52 0.0 4.0 0.00 0.00 0.00 59 1011.2
20260506170514 77 68 0.0 3.0 0.00 0.00 0.00 59 1011.2
20260506170015 77 82 0.0 3.0 0.00 0.00 0.00 59 1011.2
20260506165512 77 75 0.0 3.0 0.00 0.00 0.00 59 1011.1
20260506165014 77 65 1.0 3.0 0.00 0.00 0.00 59 1011.1
20260506164515 77 84 0.0 3.0 0.00 0.00 0.00 60 1011.0
20260506164012 77 76 0.0 3.0 0.00 0.00 0.00 60 1010.9
20260506163511 77 47 0.0 3.0 0.00 0.00 0.00 61 1011.0
20260506163012 77 72 0.0 3.0 0.00 0.00 0.00 61 1011.0
20260506162508 77 79 0.0 3.0 0.00 0.00 0.00 61 1010.9
20260506162008 76 84 0.0 2.0 0.00 0.00 0.00 60 1010.8
20260506161508 77 91 0.0 1.0 0.00 0.00 0.00 61 1010.8
20260506161007 77 72 0.0 3.0 0.00 0.00 0.00 61 1010.7
20260506160509 77 68 0.0 3.0 0.00 0.00 0.00 60 1010.6
20260506160007 77 51 0.0 2.0 0.00 0.00 0.00 60 1010.4
20260506155504 77 94 0.0 0.0 0.00 0.00 0.00 60 1010.3
20260506155004 77 93 0.0 1.0 0.00 0.00 0.00 60 1010.2
20260506154514 77 51 0.0 2.0 0.00 0.00 0.00 60 1010.3
20260506154004 77 53 0.0 2.0 0.00 0.00 0.00 60 1010.3
20260506153504 77 69 0.0 1.0 0.00 0.00 0.00 60 1010.2
20260506153002 77 72 0.0 2.0 0.00 0.00 0.00 60 1010.2
20260506152501 77 46 0.0 2.0 0.00 0.00 0.00 60 1010.2
20260506152001 77 85 0.0 1.0 0.00 0.00 0.00 59 1010.2
20260506151502 77 86 0.0 1.0 0.00 0.00 0.00 59 1010.2
20260506151100 77 94 0.0 1.0 0.00 0.00 0.00 60 1010.2
20260506150559 77 117 0.0 0.0 0.00 0.00 0.00 59 1010.2
20260506150104 77 117 0.0 0.0 0.00 0.00 0.00 58 1010.1
20260506145558 77 117 0.0 0.0 0.00 0.00 0.00 58 1010.0
20260506145057 77 117 0.0 0.0 0.00 0.00 0.00 58 1010.0
20260506144557 77 117 0.0 1.0 0.00 0.00 0.00 58 1009.9
20260506144057 77 117 0.0 1.0 0.00 0.00 0.00 59 1009.9
20260506143555 76 117 0.0 1.0 0.00 0.00 0.00 59 1009.7
20260506143055 76 118 0.0 2.0 0.00 0.00 0.00 59 1009.7
20260506142553 76 144 0.0 2.0 0.00 0.00 0.00 59 1009.6
20260506142052 76 138 0.0 3.0 0.00 0.00 0.00 59 1009.6
20260506141552 76 167 1.0 3.0 0.00 0.00 0.00 59 1009.5
20260506141052 76 139 0.0 1.0 0.00 0.00 0.00 59 1009.4
20260506140554 76 148 0.0 3.0 0.00 0.00 0.00 59 1009.3
20260506140051 76 124 0.0 3.0 0.00 0.00 0.00 59 1009.2
20260506135550 76 147 0.0 3.0 0.00 0.00 0.00 60 1009.1
20260506135049 76 224 0.0 4.0 0.00 0.00 0.00 60 1009.0
20260506134549 75 140 1.0 4.0 0.00 0.00 0.00 60 1008.9
20260506134048 75 155 0.0 4.0 0.00 0.00 0.00 60 1008.9
20260506133548 75 163 0.0 4.0 0.00 0.00 0.00 60 1008.8
20260506133046 75 166 0.0 3.0 0.00 0.00 0.00 60 1008.7
20260506132544 75 124 0.0 4.0 0.00 0.00 0.00 61 1008.7
20260506132045 75 131 1.0 3.0 0.00 0.00 0.00 61 1008.6
20260506131557 75 113 0.0 3.0 0.00 0.00 0.00 61 1008.6
20260506131043 75 109 0.0 4.0 0.00 0.00 0.00 61 1008.6
20260506130544 75 129 0.0 2.0 0.00 0.00 0.00 61 1008.5
20260506130051 75 128 0.0 1.0 0.00 0.00 0.00 61 1008.5
20260506125542 75 136 0.0 1.0 0.00 0.00 0.00 61 1008.5
20260506125043 75 119 0.0 1.0 0.00 0.00 0.00 61 1008.5
20260506124542 75 145 0.0 1.0 0.00 0.00 0.00 61 1008.4
20260506124041 75 127 0.0 0.0 0.00 0.00 0.00 61 1008.3
20260506123541 75 124 0.0 0.0 0.00 0.00 0.00 62 1008.3
20260506123041 75 124 0.0 0.0 0.00 0.00 0.00 62 1008.3
20260506122540 75 124 0.0 0.0 0.00 0.00 0.00 62 1008.2
20260506122039 75 117 0.0 0.0 0.00 0.00 0.00 62 1008.2
20260506121539 75 121 0.0 0.0 0.00 0.00 0.00 62 1008.1
20260506121039 75 108 0.0 3.0 0.00 0.00 0.00 62 1008.1
20260506120543 75 116 0.0 3.0 0.00 0.00 0.00 62 1008.1
20260506120040 75 115 0.0 1.0 0.00 0.00 0.00 62 1008.1
20260506115539 75 111 0.0 2.0 0.00 0.00 0.00 63 1008.1
20260506115037 75 117 0.0 2.0 0.00 0.00 0.00 63 1008.1
20260506114538 75 118 0.0 1.0 0.00 0.00 0.00 63 1008.1
20260506114039 75 119 0.0 2.0 0.00 0.00 0.00 63 1008.2
20260506113538 75 118 0.0 2.0 0.00 0.00 0.00 63 1008.1
20260506113037 75 115 0.0 1.0 0.00 0.00 0.00 63 1008.1
20260506112538 75 115 0.0 3.0 0.00 0.00 0.00 63 1008.0
20260506112037 75 160 1.0 3.0 0.00 0.00 0.00 63 1008.0
20260506111536 75 151 0.0 4.0 0.00 0.00 0.00 63 1008.1
20260506111037 75 127 1.0 4.0 0.00 0.00 0.00 63 1008.1
20260506110538 75 105 1.0 5.0 0.00 0.00 0.00 63 1008.1
20260506110036 75 157 1.0 5.0 0.00 0.00 0.00 63 1008.1
20260506105535 75 120 0.0 6.0 0.00 0.00 0.00 63 1008.2
20260506105035 75 128 2.0 6.0 0.00 0.00 0.00 63 1008.2
20260506104535 75 113 0.0 6.0 0.00 0.00 0.00 63 1008.2
20260506104034 75 138 1.0 6.0 0.00 0.00 0.00 62 1008.1
20260506103534 75 146 1.0 5.0 0.00 0.00 0.00 62 1008.0
20260506103039 75 136 2.0 8.0 0.00 0.00 0.00 62 1008.0
20260506102533 75 119 3.0 8.0 0.00 0.00 0.00 62 1008.0
20260506102034 75 119 3.0 7.0 0.00 0.00 0.00 62 1008.1
20260506101533 75 150 3.0 10.0 0.00 0.00 0.00 62 1008.1
20260506101032 75 111 3.0 10.0 0.00 0.00 0.00 62 1008.0
20260506100534 75 125 3.0 7.0 0.00 0.00 0.00 63 1008.0
20260506100036 75 109 1.0 7.0 0.00 0.00 0.00 62 1008.0
20260506095531 75 160 3.0 7.0 0.00 0.00 0.00 62 1008.1
20260506095031 75 106 0.0 7.0 0.00 0.00 0.00 63 1008.0
20260506094540 75 100 3.0 7.0 0.00 0.00 0.00 63 1008.1
20260506094033 75 127 4.0 7.0 0.00 0.00 0.00 63 1008.0
20260506093530 75 128 2.0 6.0 0.00 0.00 0.00 63 1008.0
20260506093035 75 122 1.0 7.0 0.00 0.00 0.00 63 1007.9
20260506092529 75 142 2.0 7.0 0.00 0.00 0.00 63 1007.9
20260506092029 75 149 3.0 7.0 0.00 0.00 0.00 63 1007.8
20260506091531 75 98 1.0 9.0 0.00 0.00 0.00 63 1007.9
20260506091032 76 143 3.0 9.0 0.00 0.00 0.00 63 1007.9
20260506090528 76 133 2.0 6.0 0.00 0.00 0.00 63 1007.9
20260506090028 76 148 2.0 8.0 0.00 0.00 0.00 62 1007.9
20260506085528 76 147 3.0 8.0 0.00 0.00 0.00 62 1007.9
20260506085027 76 145 2.0 7.0 0.00 0.00 0.00 62 1007.9
20260506084526 76 102 2.0 10.0 0.00 0.00 0.00 62 1007.8
20260506084028 76 115 4.0 10.0 0.00 0.00 0.00 62 1007.8
20260506083527 76 108 3.0 10.0 0.00 0.00 0.00 62 1007.8
20260506083027 76 193 1.0 10.0 0.00 0.00 0.00 62 1007.8
20260506082530 76 120 2.0 9.0 0.00 0.00 0.00 62 1007.8
20260506082027 76 101 3.0 8.0 0.00 0.00 0.00 62 1007.9
20260506081530 76 126 3.0 8.0 0.00 0.00 0.00 62 1007.9
20260506081025 76 141 1.0 7.0 0.00 0.00 0.00 63 1008.0
20260506080525 76 134 1.0 7.0 0.00 0.00 0.00 62 1008.0
20260506073522 76 106 0.0 4.0 0.00 0.00 0.00 63 1008.1
20260506073022 76 136 1.0 5.0 0.00 0.00 0.00 63 1008.1
20260506072522 76 129 0.0 7.0 0.00 0.00 0.00 63 1008.1
20260506072021 76 115 2.0 8.0 0.00 0.00 0.00 63 1008.0
20260506071524 76 112 3.0 8.0 0.00 0.00 0.00 63 1008.1
20260506071021 76 118 1.0 8.0 0.00 0.00 0.00 63 1008.1
20260506070521 76 118 4.0 8.0 0.00 0.00 0.00 63 1008.1
20260506062019 76 126 0.0 6.0 0.00 0.00 0.00 63 1008.1
20260506061519 76 130 1.0 5.0 0.00 0.00 0.00 63 1008.1
20260506061018 76 92 0.0 6.0 0.00 0.00 0.00 64 1008.1
20260506060522 76 123 1.0 6.0 0.00 0.00 0.00 64 1008.2
20260506051015 77 136 3.0 8.0 0.00 0.00 0.00 67 1008.0
20260506050510 77 88 1.0 6.0 0.00 0.00 0.00 68 1007.9
20260506045012 78 100 2.0 8.0 0.00 0.00 0.00 68 1007.9
20260506044508 78 111 3.0 7.0 0.00 0.00 0.00 69 1007.9
20260506044010 78 177 2.0 6.0 0.00 0.00 0.00 69 1008.0
20260506043508 78 103 1.0 6.0 0.00 0.00 0.00 69 1008.0
20260506043008 78 159 2.0 6.0 0.00 0.00 0.00 69 1008.0
20260506042508 78 139 1.0 7.0 0.00 0.00 0.00 70 1007.9
20260506042009 78 129 2.0 8.0 0.00 0.00 0.00 70 1007.8
20260506041513 79 124 2.0 7.0 0.00 0.00 0.00 70 1007.7
20260506041006 79 131 1.0 5.0 0.00 0.00 0.00 70 1007.6
20260506040507 79 168 1.0 4.0 0.00 0.00 0.00 70 1007.6
20260506040009 79 150 1.0 9.0 0.00 0.00 0.00 69 1007.6
20260506035511 79 72 2.0 9.0 0.00 0.00 0.00 69 1007.6
20260506035007 79 104 1.0 5.0 0.00 0.00 0.00 69 1007.5
20260506034510 79 100 1.0 6.0 0.00 0.00 0.00 69 1007.3
20260506034006 80 101 1.0 6.0 0.00 0.00 0.00 68 1007.2
20260506033505 80 112 0.0 4.0 0.00 0.00 0.00 68 1007.2
20260506033005 80 123 0.0 5.0 0.00 0.00 0.00 68 1007.1
20260506032504 80 92 1.0 6.0 0.00 0.00 0.00 67 1007.0
20260506032004 80 144 1.0 7.0 0.00 0.00 0.00 67 1007.0
20260506031504 80 97 1.0 7.0 0.00 0.00 0.00 67 1007.0
20260506031004 80 97 1.0 5.0 0.00 0.00 0.00 67 1006.8
20260506030503 80 105 1.0 5.0 0.00 0.00 0.00 67 1006.7
20260506030009 80 128 0.0 6.0 0.00 0.00 0.00 68 1006.8
20260506025503 79 107 1.0 6.0 0.00 0.00 0.00 68 1006.7
20260506025003 79 91 0.0 1.0 0.00 0.00 0.00 69 1006.7
20260506024510 79 89 0.0 0.0 0.00 0.00 0.00 69 1006.6
20260506024003 79 89 0.0 0.0 0.00 0.00 0.00 69 1006.5
20260506023503 79 89 0.0 0.0 0.00 0.00 0.00 69 1006.5
20260506023003 79 90 0.0 1.0 0.00 0.00 0.00 69 1006.4
20260506022502 79 96 0.0 1.0 0.00 0.00 0.00 69 1006.4
20260506022002 79 99 0.0 0.0 0.00 0.00 0.00 69 1006.4
20260506021502 79 99 0.0 1.0 0.00 0.00 0.00 69 1006.3
20260506021002 80 99 0.0 1.0 0.00 0.00 0.00 69 1006.3
20260506020501 80 98 0.0 0.0 0.00 0.00 0.00 69 1006.3
20260506020001 80 99 0.0 0.0 0.00 0.00 0.00 69 1006.1
20260506015502 80 99 0.0 0.0 0.00 0.00 0.00 69 1006.1
20260506015001 80 99 0.0 0.0 0.00 0.00 0.00 69 1005.9
20260506014501 80 99 0.0 0.0 0.00 0.00 0.00 68 1005.9
20260506014002 81 99 0.0 0.0 0.00 0.00 0.00 68 1005.9
20260506013501 81 99 0.0 0.0 0.00 0.00 0.00 68 1005.9
20260506013100 81 98 0.0 0.0 0.00 0.00 0.00 67 1005.8
20260506012600 82 99 0.0 0.0 0.00 0.00 0.00 67 1005.7
20260506012058 82 99 0.0 0.0 0.00 0.00 0.00 66 1005.6
20260506011559 83 82 0.0 1.0 0.00 0.00 0.00 66 1005.5
20260506011101 83 77 0.0 1.0 0.00 0.00 0.00 66 1005.4
20260506010600 83 88 0.0 1.0 0.00 0.00 0.00 65 1005.4
20260506010058 84 78 0.0 1.0 0.00 0.00 0.00 65 1005.3
20260506005601 84 84 0.0 2.0 0.00 0.00 0.00 65 1005.3
20260506005057 84 62 0.0 2.0 0.00 0.00 0.00 64 1005.2
20260506004600 85 58 0.0 3.0 0.00 0.00 0.00 64 1005.2
20260506004057 85 67 0.0 3.0 0.00 0.00 0.00 63 1005.1
20260506003557 85 79 0.0 2.0 0.00 0.00 0.00 63 1005.1
20260506003058 86 75 0.0 1.0 0.00 0.00 0.00 62 1005.0
20260506002556 86 89 0.0 1.0 0.00 0.00 0.00 61 1005.0
20260506002056 86 92 0.0 1.0 0.00 0.00 0.00 60 1005.0
20260506001607 87 85 0.0 1.0 0.00 0.00 0.00 60 1005.0
20260506001056 87 46 0.0 1.0 0.00 0.00 0.00 60 1004.9
20260506000556 87 91 0.0 3.0 0.00 0.00 0.00 60 1004.9
20260506000057 87 94 0.0 3.0 0.00 0.00 0.00 60 1004.9
20260505235555 88 101 0.0 2.0 0.00 0.00 0.00 59 1004.9
20260505235056 88 83 0.0 4.0 0.00 0.00 0.00 58 1004.9
20260505234559 89 109 0.0 4.0 0.00 0.00 0.00 58 1004.9
20260505234058 89 57 1.0 5.0 0.00 0.00 0.00 57 1005.0
20260505233555 89 128 1.0 5.0 0.00 0.00 0.00 55 1004.9
20260505233055 89 75 1.0 4.0 0.00 0.00 0.00 55 1004.9
20260505232557 89 104 0.0 4.0 0.00 0.00 0.00 55 1004.8
20260505232054 89 110 0.0 5.0 0.00 0.00 0.00 54 1004.9
20260505231602 90 115 2.0 5.0 0.00 0.00 0.00 55 1004.9
20260505231059 90 137 1.0 5.0 0.00 0.00 0.00 54 1004.9
20260505230552 90 86 1.0 6.0 0.00 0.00 0.00 56 1005.0
20260505230059 89 106 2.0 6.0 0.00 0.00 0.00 55 1005.0
20260505225554 89 137 1.0 4.0 0.00 0.00 0.00 56 1004.8
20260505225055 89 108 1.0 5.0 0.00 0.00 0.00 56 1004.8
20260505224553 89 152 2.0 5.0 0.00 0.00 0.00 55 1004.9
20260505224051 90 141 2.0 5.0 0.00 0.00 0.00 54 1005.0
20260505223551 90 153 0.0 5.0 0.00 0.00 0.00 54 1005.1
20260505223053 90 170 1.0 4.0 0.00 0.00 0.00 54 1005.1
20260505222549 90 155 0.0 3.0 0.00 0.00 0.00 54 1005.1
20260505222050 90 141 0.0 5.0 0.00 0.00 0.00 54 1005.0
20260505221550 90 159 1.0 5.0 0.00 0.00 0.00 54 1005.0
20260505221047 91 176 1.0 5.0 0.00 0.00 0.00 54 1005.1
20260505220547 91 155 2.0 5.0 0.00 0.00 0.00 54 1005.1
20260505220046 91 169 2.0 7.0 0.00 0.00 0.00 54 1005.2
20260505215545 90 79 3.0 7.0 0.00 0.00 0.00 55 1005.2
20260505215045 90 85 0.0 4.0 0.00 0.00 0.00 56 1005.2
20260505214543 89 137 1.0 4.0 0.00 0.00 0.00 56 1005.3
20260505214042 90 114 1.0 4.0 0.00 0.00 0.00 55 1005.5
20260505213540 89 231 0.0 9.0 0.00 0.00 0.00 55 1005.6
20260505213051 88 148 2.0 5.0 0.00 0.00 0.00 57 1005.6
20260505212540 88 87 0.0 3.0 0.00 0.00 0.00 58 1005.6
20260505212037 89 63 0.0 7.0 0.00 0.00 0.00 56 1005.8
20260505211537 89 136 4.0 7.0 0.00 0.00 0.00 55 1005.8
20260505211039 90 70 1.0 4.0 0.00 0.00 0.00 56 1005.9
20260505210533 89 229 1.0 5.0 0.00 0.00 0.00 56 1005.9
20260505210035 89 266 1.0 5.0 0.00 0.00 0.00 55 1006.0
20260505205532 88 229 2.0 5.0 0.00 0.00 0.00 55 1006.0
20260505205030 88 224 0.0 5.0 0.00 0.00 0.00 56 1006.1
20260505204531 88 184 0.0 7.0 0.00 0.00 0.00 57 1006.3
20260505204029 88 164 3.0 7.0 0.00 0.00 0.00 55 1006.2
20260505203529 88 144 1.0 6.0 0.00 0.00 0.00 54 1006.4
20260505203028 88 154 1.0 6.0 0.00 0.00 0.00 54 1006.4
20260505202527 87 42 0.0 4.0 0.00 0.00 0.00 54 1006.6
20260505202028 87 79 0.0 3.0 0.00 0.00 0.00 56 1006.6
20260505201525 87 136 0.0 6.0 0.00 0.00 0.00 56 1006.7
20260505201025 87 99 3.0 5.0 0.00 0.00 0.00 55 1006.7
20260505200527 88 174 1.0 5.0 0.00 0.00 0.00 53 1006.9
20260505200024 87 251 1.0 7.0 0.00 0.00 0.00 54 1007.0
20260505195526 87 224 2.0 7.0 0.00 0.00 0.00 52 1007.1
20260505195020 87 273 0.0 4.0 0.00 0.00 0.00 53 1007.2
20260505194519 86 274 1.0 4.0 0.00 0.00 0.00 52 1007.2
20260505194019 86 140 0.0 3.0 0.00 0.00 0.00 53 1007.2
20260505193016 85 129 1.0 4.0 0.00 0.00 0.00 54 1007.4
20260505192519 84 79 0.0 4.0 0.00 0.00 0.00 54 1007.5
20260505192014 84 142 0.0 3.0 0.00 0.00 0.00 55 1007.4
20260505191514 84 21 0.0 5.0 0.00 0.00 0.00 57 1007.5
20260505191015 84 134 1.0 5.0 0.00 0.00 0.00 56 1007.6
20260505190513 84 93 0.0 5.0 0.00 0.00 0.00 55 1007.6
20260505190014 84 138 0.0 2.0 0.00 0.00 0.00 55 1007.7
20260505185511 84 293 0.0 3.0 0.00 0.00 0.00 54 1007.8
20260505185010 84 130 0.0 3.0 0.00 0.00 0.00 56 1007.9
20260505184510 83 255 0.0 6.0 0.00 0.00 0.00 58 1008.1
20260505184008 83 28 1.0 6.0 0.00 0.00 0.00 57 1008.2
20260505183507 83 302 0.0 2.0 0.00 0.00 0.00 56 1008.2
20260505183007 83 101 0.0 3.0 0.00 0.00 0.00 57 1008.2
20260505182509 82 142 0.0 3.0 0.00 0.00 0.00 56 1008.4
20260505182006 82 231 1.0 3.0 0.00 0.00 0.00 56 1008.4
20260505181507 82 285 0.0 4.0 0.00 0.00 0.00 58 1008.4
20260505181006 81 250 0.0 4.0 0.00 0.00 0.00 58 1008.5
20260505180505 82 304 1.0 4.0 0.00 0.00 0.00 57 1008.6
20260505180008 82 74 0.0 4.0 0.00 0.00 0.00 57 1008.7